Location: �chenoz-la-M�line
(47.6009°N, 6.1354°E)
Time: 13:02:32
(UTC+00:00)

Meteor 1-11 - Pass Details

Date: 27 January 2021
Orbit: 840 x 887 km, 81.2° (Epoch: 02 March)

Event Time Altitude Azimuth Distance (km) Brightness Sun altitude
Rises 05:37:10 0° 344° (NNW) 3,410 7.1 -15.3°
Reaches altitude 10° 05:39:38 10° 339° (NNW) 2,469 6.3 -14.9°
Maximum altitude 05:45:00 50° 266° (W) 1,067 4.3 -14.0°
Drops below altitude 10° 05:50:21 10° 192° (SSW) 2,458 6.6 -13.1°
Sets 05:52:49 0° 187° (S) 3,393 7.4 -12.7°
